Location: Newark
(52.0167°N, 6.1333°E)
Time: 00:37:19
(UTC+00:00)

N. Korean satellite - Pass Details

Date: 21 September 2019
Orbit: 455 x 508 km, 97.2° (Epoch: 19 October)

Event Time Altitude Azimuth Distance (km) Brightness Sun altitude
Rises 04:31:17 0° 30° (NNE) 2,489 10.8 -8.1°
Reaches altitude 10° 04:34:13 10° 58° (ENE) 1,605 10.5 -7.7°
Maximum altitude 04:36:00 14° 89° (E) 1,398 10.4 -7.4°
Drops below altitude 10° 04:37:47 10° 121° (ESE) 1,597 10.0 -7.1°
Sets 04:40:40 0° 149° (SSE) 2,467 10.5 -6.7°
